[[{"header":{"parameterUnit":"m.s-1","parameterCategory":1,"la1":30.2991,"la2":30.254,"lo1":-89.0895,"lo2":-89.0444,"dy":0.0017,"dx":0.0017,"nx":28,"ny":28,"refTime":"2024-09-26T09:00:00:Z","depth":0,"parameterNumber":2,"parameterNumberName":"U-component_of_WINDS"},"data":[0,0,0,0,0,0,0,0,0,0,0,0,0,0,0,0,0,0,0,0,0,0,0,0,0,0,0,0,0,0,0,0,0,0,0,0,0,0,0,0,0,0,0,0,0,0,0,0,0,0,0,0,0,0,0,0,0,0,6.0843,6.0845,0,6.1035,6.1037,6.104,6.0984,6.098,6.0976,6.0972,6.1168,6.1177,6.1186,0,0,0,0,0,0,0,0,0,0,0,0,0,6.0425,6.0433,6.0843,6.0845,6.0848,6.1035,6.1038,6.104,6.0984,6.098,6.0975,6.097,6.1165,6.1176,6.1187,0,0,0,0,0,0,0,0,0,0,0,0,0,6.0611,6.0436,6.0843,6.0843,6.0845,6.1034,6.1038,6.1041,6.0985,6.0979,6.0974,6.0968,6.1162,6.1175,6.1188,6.139,0,0,6.1229,6.1235,0,0,0,0,0,0,0,0,6.0601,6.0627,6.084,6.0843,6.0845,6.0979,6.0962,6.1158,6.0987,6.0932,6.0972,6.0965,6.111,6.1128,6.1177,6.1399,6.1407,6.123,6.1238,6.1244,6.1248,0,0,0,0,0,0,0,6.0588,6.0618,6.0919,6.0843,6.0847,6.0832,6.0852,6.0999,6.1052,6.0936,6.0933,6.0956,6.1111,6.1164,6.1181,6.141,6.123,6.1242,6.125,6.1255,6.1802,6.1809,0,0,0,0,0,0,6.0573,6.0608,6.0913,6.0925,6.0706,6.0844,6.0867,6.0942,6.105,6.1061,6.0961,6.0953,6.1144,6.1165,6.1187,6.1427,6.1244,6.1257,6.1264,6.1796,6.1804,6.1811,0,0,0,0,0,0,6.0565,6.0601,6.0905,6.0765,6.0803,6.0858,6.0944,6.0949,6.1002,6.1069,6.1078,6.1006,6.114,6.1169,6.1339,6.1433,6.1263,6.1275,6.1788,6.1798,6.1807,6.1909,0,0,0,0,0,0,6.0553,6.0598,6.0676,6.0768,6.0811,6.1054,6.095,6.0957,6.1026,6.1017,6.1113,6.1124,6.1138,6.1319,6.1352,6.1448,6.1285,6.178,6.1793,6.1804,6.1897,6.1921,6.1941,0,0,0,0,0,6.0538,6.0698,6.068,6.0718,6.0909,6.106,6.1084,6.1097,6.1034,6.1111,6.1154,6.1121,6.1418,6.1337,6.1374,6.1475,6.1774,6.1789,6.1803,6.1887,6.1916,6.194,0,0,0,0,0,0,6.0617,6.071,6.0692,6.0886,6.0965,6.105,6.1149,6.1128,6.1227,6.1214,6.1226,6.1248,6.1422,6.1466,6.1374,6.1673,6.1586,6.1609,6.1638,6.1666,6.1687,6.1671,6.1296,0,0,0,0,0,6.0657,6.0772,6.0847,6.1011,6.1052,6.1094,6.116,6.1163,6.1245,6.1279,6.1333,6.1415,6.1525,6.1599,6.1705,6.1904,6.1922,6.1992,6.2014,6.2031,6.205,6.2154,6.2185,6.1859,6.1859,6.1859,0,0,6.0741,6.0806,6.0878,6.1029,6.109,6.1208,6.1122,6.1251,6.1338,6.1298,6.1461,6.1504,6.1595,6.1779,6.1863,6.1822,6.2144,6.205,6.2064,6.2073,6.2172,6.2203,6.223,6.1869,6.1867,6.1865,0,0,6.0952,6.1015,6.1156,6.1219,6.1314,6.134,6.1374,6.1462,6.1489,6.1652,6.1624,6.1727,6.192,6.1984,6.2042,6.2276,6.2247,6.231,6.2423,6.2525,6.2551,6.2573,6.2652,6.2681,6.2329,6.233,6.233,0,6.1044,6.122,6.1232,6.1362,6.1427,6.1397,6.1539,6.16,6.1724,6.1769,6.1721,6.1959,6.2019,6.2216,6.2272,6.2322,6.2359,6.2298,6.2546,6.2569,6.259,6.2666,6.2696,6.2336,6.2335,6.2335,6.2334,0,6.1326,6.1449,6.1552,6.1671,6.1749,6.1885,6.1915,6.1992,6.1988,6.2019,6.2184,6.2254,6.2372,6.242,6.2418,6.2616,6.2586,6.2543,6.2455,6.2628,6.2699,6.2728,6.2346,6.2343,6.2341,6.234,0,0,6.1593,6.1715,6.1752,6.1804,6.1905,6.1999,6.2133,6.2247,6.2311,6.2399,6.2508,6.2671,6.2629,6.2695,6.27,6.279,6.2965,6.2735,6.2737,6.2771,6.3183,6.3212,6.3245,6.2948,6.2954,6.2959,6.3173,0,6.1809,6.2043,6.2056,6.2268,6.2379,6.2351,6.2466,6.2539,6.2572,6.267,6.2706,6.2819,6.2758,6.2797,6.2885,6.2925,6.3047,6.2911,6.3048,6.3052,6.3022,6.3283,6.3316,6.3515,6.3202,6.3206,6.321,0,6.2094,6.2187,6.241,6.2491,6.2538,6.2642,6.2746,6.2841,6.2923,6.294,6.3013,6.3004,6.3138,6.3048,6.3231,6.3138,6.3195,6.3223,6.3231,6.3242,6.3139,6.3297,6.3579,6.3607,6.3255,6.3251,6.3248,0,6.226,6.2442,6.2597,6.2643,6.2744,6.2816,6.2861,6.2938,6.3005,6.3096,6.3139,6.3246,6.3303,6.3385,6.3404,6.3338,6.3586,6.3499,6.3601,6.3601,6.3652,6.3648,6.3944,6.3696,6.3696,6.3695,6.3694,0,6.2499,6.2635,6.2673,6.2768,6.2918,6.2932,6.308,6.312,6.3188,6.3289,6.3272,6.3367,6.3389,6.3488,6.3505,6.3651,6.3679,6.3694,6.3696,6.3694,6.3691,6.3728,6.3713,6.3703,6.3701,6.37,6.3698,0,6.2709,6.274,6.2907,6.2987,6.3011,6.3118,6.3186,6.3276,6.3306,6.3434,6.3465,6.3511,6.3626,6.3655,6.3793,6.3804,6.3976,6.3967,6.3948,6.3946,6.4045,6.4034,6.4372,6.4415,6.4143,6.4146,6.4148,0,6.2857,6.2961,6.3052,6.3118,6.3166,6.3273,6.3341,6.3358,6.3429,6.3528,6.3606,6.3719,6.381,6.3995,6.404,6.4145,6.4136,6.4247,6.4151,6.4144,6.4132,6.4124,6.4132,6.4264,6.4267,6.4269,6.4271,0,6.3116,6.3125,6.3224,6.3327,6.3407,6.349,6.3568,6.3623,6.3651,6.3731,6.3848,6.3919,6.4058,6.4169,6.4274,6.4319,6.4299,6.4301,6.433,6.4326,6.4309,6.4315,6.3993,6.4293,6.4291,6.4289,6.4288,6.4287,6.3297,6.3386,6.3462,6.3571,6.3632,6.3705,6.3792,6.3832,6.393,6.4044,6.4049,6.4175,6.4251,6.4389,6.4441,6.4538,6.4504,6.4547,6.4557,6.4566,6.4572,6.4296,6.4558,6.4558,6.4557,6.4557,6.4556,0,6.355,6.3598,6.3698,6.3807,6.3892,6.3867,6.3951,6.4023,6.4135,6.4208,6.4297,6.4429,6.4537,6.459,6.4696,6.4763,6.4757,6.479,6.4783,6.4793,6.4599,6.4562,6.4794,6.4794,6.4794,6.4794,6.4794,6.4793,6.3692,6.384,6.3858,6.4034,6.4081,6.4204,6.4254,6.432,6.4378,6.4526,6.4615,6.4649,6.4713,6.4823,6.4919,6.4932,6.497,6.5007,6.5015,6.4832,6.4807,6.4784,6.4749,6.5016,6.5017,6.52,6.5202,6.5203]},{"header":{"parameterUnit":"m.s-1","parameterCategory":1,"la1":30.2991,"la2":30.254,"lo1":-89.0895,"lo2":-89.0444,"dy":0.0017,"dx":0.0017,"nx":28,"ny":28,"refTime":"2024-09-26T09:00:00:Z","depth":0,"parameterNumber":3,"parameterNumberName":"V-component_of_WINDS"},"data":[0,0,0,0,0,0,0,0,0,0,0,0,0,0,0,0,0,0,0,0,0,0,0,0,0,0,0,0,0,0,0,0,0,0,0,0,0,0,0,0,0,0,0,0,0,0,0,0,0,0,0,0,0,0,0,0,0,0,1.8583,1.8583,0,1.8658,1.8659,1.8659,1.8679,1.8678,1.8678,1.8677,1.8754,1.8757,1.8759,0,0,0,0,0,0,0,0,0,0,0,0,0,1.8454,1.8456,1.8582,1.8583,1.8584,1.8658,1.8659,1.866,1.8679,1.8678,1.8678,1.8677,1.8753,1.8756,1.8759,0,0,0,0,0,0,0,0,0,0,0,0,0,1.8518,1.8457,1.8582,1.8603,1.8605,1.8657,1.8659,1.866,1.8679,1.8678,1.8677,1.8677,1.8752,1.8756,1.876,1.8797,0,0,1.8771,1.8773,0,0,0,0,0,0,0,0,1.8514,1.8522,1.8599,1.8601,1.8604,1.8658,1.8642,1.8706,1.8679,1.8651,1.8677,1.8676,1.8723,1.8729,1.8745,1.88,1.8804,1.8771,1.8774,1.8775,1.8776,0,0,0,0,0,0,0,1.851,1.8519,1.8612,1.86,1.8603,1.8608,1.8616,1.8654,1.869,1.8653,1.8655,1.8664,1.8724,1.8741,1.8746,1.8805,1.8771,1.8775,1.8777,1.8778,1.8894,1.8894,0,0,0,0,0,0,1.8502,1.8515,1.861,1.8614,1.8557,1.8611,1.862,1.8642,1.8689,1.8696,1.8664,1.8664,1.8735,1.8742,1.8749,1.8795,1.8775,1.8779,1.8781,1.8893,1.8894,1.8895,0,0,0,0,0,0,1.8499,1.851,1.8607,1.8565,1.8578,1.8614,1.8638,1.8643,1.866,1.8698,1.8704,1.8675,1.8735,1.8744,1.8785,1.8798,1.878,1.8784,1.8892,1.8893,1.8894,1.8888,0,0,0,0,0,0,1.8495,1.8509,1.8524,1.8566,1.858,1.8641,1.8639,1.8645,1.8667,1.8667,1.8709,1.8715,1.8735,1.8779,1.8788,1.8803,1.8787,1.8891,1.8892,1.8894,1.8887,1.8888,1.889,0,0,0,0,0,1.8491,1.8519,1.8524,1.8536,1.8599,1.8642,1.865,1.8672,1.8668,1.8682,1.8706,1.8714,1.8795,1.8783,1.8794,1.881,1.889,1.8892,1.8894,1.8886,1.8888,1.889,0,0,0,0,0,0,1.8478,1.8525,1.8531,1.8574,1.8604,1.8645,1.8665,1.8674,1.8705,1.8704,1.873,1.8739,1.8778,1.8798,1.8783,1.8847,1.8842,1.8847,1.8833,1.8835,1.8837,1.8831,1.879,0,0,0,0,0,1.848,1.8511,1.855,1.8584,1.8599,1.8629,1.8648,1.8662,1.8694,1.8707,1.8734,1.8764,1.8796,1.8817,1.8849,1.889,1.8899,1.8906,1.8907,1.8908,1.8912,1.8934,1.8938,1.8901,1.8901,1.8901,0,0,1.8485,1.8514,1.8532,1.8582,1.8607,1.8638,1.8639,1.8672,1.8695,1.8712,1.8752,1.8772,1.8808,1.8848,1.8868,1.8866,1.8924,1.8911,1.8911,1.8914,1.8936,1.894,1.8943,1.8902,1.8902,1.8902,0,0,1.851,1.8535,1.8566,1.859,1.8628,1.8647,1.8655,1.8694,1.8709,1.8749,1.8762,1.8789,1.8844,1.8869,1.8888,1.8921,1.8929,1.8931,1.8939,1.896,1.8963,1.8966,1.8977,1.8981,1.8934,1.8934,1.8934,0,1.8511,1.8558,1.8581,1.8613,1.8634,1.865,1.8681,1.8703,1.8749,1.8763,1.8761,1.883,1.8855,1.8901,1.8909,1.8924,1.8933,1.8926,1.8961,1.8964,1.8967,1.8978,1.8982,1.8934,1.8934,1.8934,1.8934,0,1.8558,1.859,1.8611,1.8654,1.8678,1.8709,1.8735,1.8757,1.8768,1.8788,1.8828,1.8859,1.8896,1.8908,1.892,1.8956,1.8954,1.8956,1.8952,1.897,1.898,1.8985,1.8933,1.8933,1.8933,1.8933,0,0,1.8577,1.8632,1.8639,1.8658,1.87,1.8725,1.8757,1.8794,1.8811,1.8842,1.8868,1.8914,1.8916,1.8938,1.8953,1.8972,1.8995,1.8971,1.8973,1.8974,1.9035,1.9033,1.9038,1.9,1.9001,1.9002,1.9032,0,1.8607,1.8664,1.8685,1.8732,1.8761,1.8776,1.8804,1.8832,1.8851,1.8879,1.89,1.8932,1.8932,1.8945,1.8965,1.8988,1.9007,1.8986,1.9025,1.9026,1.9016,1.9044,1.9042,1.9069,1.9036,1.9037,1.9038,0,1.8649,1.868,1.873,1.8767,1.878,1.8804,1.8839,1.8866,1.8898,1.891,1.8934,1.8948,1.8981,1.8974,1.9019,1.9004,1.9021,1.9035,1.9037,1.9041,1.9033,1.9048,1.9078,1.9082,1.9045,1.9044,1.9044,0,1.8657,1.8711,1.8748,1.8764,1.8809,1.8825,1.8844,1.8876,1.8896,1.8927,1.894,1.8974,1.8992,1.9018,1.9039,1.9033,1.9083,1.9078,1.9094,1.9093,1.9104,1.9103,1.9136,1.9115,1.9115,1.9115,1.9115,0,1.8688,1.8718,1.8752,1.8775,1.8808,1.8831,1.8864,1.8884,1.8911,1.8938,1.8953,1.8977,1.9004,1.9032,1.9049,1.9083,1.9092,1.9102,1.9107,1.9101,1.91,1.9113,1.9111,1.9116,1.9116,1.9115,1.9115,0,1.8703,1.8728,1.8769,1.8807,1.8817,1.884,1.8873,1.8895,1.8914,1.8947,1.8956,1.8987,1.902,1.9044,1.9087,1.9098,1.9135,1.914,1.9124,1.9126,1.914,1.9139,1.9184,1.919,1.9164,1.9165,1.9165,0,1.8721,1.8745,1.8785,1.8804,1.8823,1.8853,1.8874,1.8897,1.8918,1.8955,1.8973,1.9007,1.9036,1.9088,1.9113,1.9146,1.9151,1.9164,1.9156,1.9149,1.9151,1.9149,1.9151,1.9166,1.9166,1.9166,1.9166,0,1.875,1.8761,1.8791,1.8824,1.8848,1.8876,1.8904,1.8918,1.8946,1.8969,1.9003,1.9025,1.9068,1.9102,1.9137,1.9156,1.9166,1.9168,1.9174,1.9168,1.9158,1.9163,1.9127,1.9167,1.9167,1.9167,1.9167,1.9167,1.8767,1.8788,1.882,1.8852,1.8875,1.8901,1.8923,1.8945,1.8974,1.9011,1.9023,1.9058,1.9088,1.9136,1.9156,1.9183,1.9183,1.919,1.9192,1.9194,1.9193,1.9154,1.919,1.919,1.919,1.919,1.919,0,1.8797,1.8818,1.8847,1.8885,1.891,1.8917,1.8947,1.8968,1.8998,1.9026,1.9054,1.9092,1.9125,1.9152,1.9186,1.9202,1.9207,1.921,1.9209,1.9213,1.9192,1.9184,1.9206,1.9206,1.9206,1.9206,1.9206,1.9206,1.8815,1.885,1.8865,1.8912,1.8932,1.8967,1.8984,1.9007,1.9029,1.9071,1.9098,1.9116,1.9144,1.9179,1.9209,1.9216,1.9227,1.9229,1.9237,1.9217,1.9215,1.9213,1.9206,1.9231,1.9232,1.9256,1.9257,1.9257]}]]